Regional Weather Roundup
Issued by NWS

Home | Current Version | Previous Version | Text Only | Print | Product List | Glossary Off
Versions: 1 2 3 4 5 6 7 8 9 10 11 12 13 14 15 16 17 18 19 20 21 22 23 24 25 26 27 28 29 30 31 32 33 34 35 36 37 38 39 40 41 42 43 44 45 46 47 48 49 50

000
ASUS43 KIND 250809
RWRIN

WEATHER ROUNDUP FOR INDIANA
NATIONAL WEATHER SERVICE INDIANAPOLIS IN
400 AM EDT SUN SEP 25 2016

NOTE: "FAIR" INDICATES FEW OR NO CLOUDS BELOW 12,000 FEET WITH NO
SIGNIFICANT WEATHER AND/OR OBSTRUCTIONS TO VISIBILITY.

* - STATION DOES NOT REPORT WEATHER SUCH AS PRECIPITATION OR FOG.

+ - STATION NOT QUALITY CONTROLLED BY THE NATIONAL WEATHER SERVICE.
    USE DATA WITH CAUTION...ESPECIALLY DEWPOINT AND RELATIVE
    HUMIDITY OBSERVATIONS.

INZ001>003-010>013-019-020-250900-
NORTHWEST INDIANA

CITY           SKY/WX    TMP DP  RH WIND       PRES   REMARKS
GARY /AIRPORT/ CLEAR     67  61  81 SE6       30.12F
KNOX *+        CLEAR     61  41  48 SE6       30.15S
LA PORTE +     CLEAR     63  63 100 SE5       30.16S
MICHIGAN CITY+ MOCLDY    63  57  82 MISG      30.15S
MONTICELLO +   CLEAR     63  56  77 E6        30.14R
RENSSELAER +   CLEAR     63  61  94 E6        30.14S
VALPARAISO     CLEAR     60  58  92 E5        30.15S

$$

LMZ046-743>745-250900-
SOUTHERN LAKE MICHIGAN

STATION/POSITION TIME  TEMP    WIND        PRES    WAVE
                       AIR SEA DIR/SP/G            HT
                 (UTC) (F)     (DEG/KT/KT) (MB)    (FT)
BURNS HARBOR     0700   67     150/ 10/ 17 1020.7S
MICHIGAN CITY    0700   65     110/ 11/ 13   N/A
5NW MICH CITY    0700   66 69  140/ 12/ 14   N/A     1

$$

INZ004-005-014>016-021>024-250900-
NORTH CENTRAL INDIANA

CITY           SKY/WX    TMP DP  RH WIND       PRES   REMARKS
GOSHEN         CLEAR     60  52  74 SE8       30.17F
LOGANSPORT +   CLEAR     59  55  88 E8        30.15F
PERU/GRISSOM   CLEAR     61  55  78 E7        30.14S
ROCHESTER +    CLEAR     63  55  77 E8        30.16S
SOUTH BEND     CLEAR     61  55  81 SE9       30.16F
WARSAW +       CLEAR     59  50  72 SE6       30.17F

$$

INZ006>009-017-018-025>027-250900-
NORTHEAST INDIANA

CITY           SKY/WX    TMP DP  RH WIND       PRES   REMARKS
ANGOLA *+        N/A     57  46  67 SE6       30.19F
AUBURN +       CLEAR     55  52  88 E3        30.19F
FORT WAYNE     CLEAR     58  51  78 E7        30.18F
HUNTINGTON +   CLEAR     58  53  85 E6        30.16F
KENDALLVILLE + CLEAR     56  53  88 SE5       30.19S

$$

INZ028-029-035-036-043>045-051>053-250900-
WEST CENTRAL INDIANA

CITY           SKY/WX    TMP DP  RH WIND       PRES   REMARKS
CRAWFORDSVL +  CLEAR     64  64 100 E6        30.12S
GREENCASTLE +  CLEAR     64  64 100 CALM      30.12F
LAFAYETTE      CLEAR     64  61  90 E8        30.12S
TERRE HAUTE    CLEAR     67  64  90 CALM      30.10S

$$

INZ030>032-037>040-046>048-054>057-064-065-250900-
CENTRAL INDIANA

CITY           SKY/WX    TMP DP  RH WIND       PRES   REMARKS
FISHERS *+     CLEAR     63  61  94 CALM      30.13
GREENWOOD *+   CLEAR     66  64  94 E5        30.13F
INDIANAPOLIS   CLEAR     68  61  78 E9        30.11F
-EAGLE CREEK   CLEAR     66  61  84 E6        30.12F
MARION +       CLEAR     59  54  82 E6        30.16F
MT COMFORT *+  CLEAR     61  59  94 E3        30.13F
SHELBYVILLE    CLEAR     65  60  84 E3        30.12F
ZIONSVILLE +   CLEAR     62  60  92 E5        30.14F

$$

INZ033-034-041-042-049-050-058-059-250900-
EAST CENTRAL INDIANA

CITY           SKY/WX    TMP DP  RH WIND       PRES   REMARKS
MUNCIE         CLEAR     60  55  83 E6        30.16F

$$

INZ060-061-067>069-081>083-085>088-250900-
SOUTHWEST INDIANA

CITY           SKY/WX    TMP DP  RH WIND       PRES   REMARKS
EVANSVILLE     CLEAR     69  65  86 NE5       30.08F
HUNTINGBURG *+   N/A     68  64  88 E3        30.09F
WASHINGTON +   CLEAR    N/A N/A N/A MISG      30.08S FOG

$$

INZ062-063-066-070>080-084-089>092-250900-
SOUTH CENTRAL AND SOUTHEAST INDIANA

CITY           SKY/WX    TMP DP  RH WIND       PRES   REMARKS
BLOOMINGTON    CLEAR     67  64  90 SE3       30.11F
MADISON *+     CLEAR     68  63  83 E3        30.14S
NORTH VERNON + CLEAR    N/A N/A N/A CALM      30.13F HAZE
SEYMOUR +      FOG       64  63  94 CALM      30.11F VSB 3/4

$$




USA.gov is the U.S. government's official web portal to all federal, state and local government web resources and services.